sat.trackr.live / text

‹ back to catalog

STARLINK-34398

NORAD 64445 · 2025-130H

PAYLOAD ACTIVE UNKNOWN

§ Identity

Operator
Country
US
Launch date
2025-06-18
Launch site
AFETR
Launch vehicle
Mass (kg)
RCS (m²)

Purposes: comms

External: N2YO · Heavens-Above · Gunter

§ Orbital elements

Epoch: 2026-09-20T23:09:45.840960Z

Period
93.85 min
Inclination
53.1562°
Eccentricity
0.0001342
Mean motion
15.34395217 rev/d
Perigee alt
461.8 km
Apogee alt
463.6 km
Semi-major
6,840.9 km
B*
9.8687e-5
RAAN
259.8744°
Arg perigee
85.4127°
Mean anomaly
274.7029°
Rev number
7,062

§ Raw data

STARLINK-343981 64445U 25130H   26263.96511390  .00002959  00000+0  98687-4 0  99932 64445  53.1562 259.8744 0001342  85.4127 274.7029 15.34395217 70629

JSON: /api/v1/satellites/64445 · /tle

For live sub-satellite position, see the globe view (requires WebGL).

§ Visibility from observer

Set your observer location to see the next 7 days of passes ≥ 10°. The values pass through the URL so the page stays shareable.

No JS? Fill the form by hand. The geolocation button needs JavaScript.